Tracking 27188 objects as of 2-Apr-2023
HD Live streaming from Space Station
objects crossing your sky now

COSMOS 1375 DEB

Track COSMOS 1375 DEB now!
10-day predictions


NORAD ID: 16380
Int'l Code: 1982-055U
Perigee: 986.0 km
Apogee: 1,071.4 km
Inclination: 65.8 °
Period: 105.6 minutes
Semi major axis: 7399 km
RCS: 0.0936 m2 (small)
Launch date: June 6, 1982
Source: Commonwealth of Independent States (former USSR) (CIS)
Launch site: PLESETSK MISSILE AND SPACE COMPLEX (PKMTR)

Note: This is SATELLITE DEBRIS
Your satellite tracking list
Your tracking list is empty




NASA's NSSDC Master Catalog

Two Line Element Set (TLE):
1 16380U 82055U   23091.15196243  .00000008  00000-0  10749-3 0  9996
2 16380  65.8384 338.0352 0057662 312.9143 212.3398 13.63898458864503
Source of the keplerian elements: AFSPC